User: anonymous   Login
Location: Newark
(14.6333°N, 90.5000°W)
Time: 19:33:16
(UTC+00:00)
Language:

EO-79 - Orbit

View from above orbital plane
View from above orbital plane
View from above satellite
View from above satellite

Ground track
Ground track

The orbit data is extracted from the following two-line orbital elements,

1 40025U 14033R   20023.43819314  .00000151  00000-0  21967-4 0  9998
2 40025  97.9125 307.8069 0013749  62.6286 297.6328 14.89057566303872
Epoch (UTC): 23 January 2020 10:30:59
Eccentricity: 0.0013749
inclination: 97.9125°
perigee height: 591 km
apogee height: 610 km
right ascension of ascending node: 307.8069°
argument of perigee: 62.6286°
revolutions per day: 14.89057566
mean anomaly at epoch: 297.6328°
orbit number at epoch: 30387

The dashed part of the orbit path shows where the satellite is in the earth's shadow,  

DLR